Temp
0 0 1 1 2 2 2 2 2 2 2 2 3 3 2 1 -0 1 2 3 4 3 2 2 3 1 1 2 2 1 2 2 3 3 2 1 1 1 2 1 1 2 2
-1 -0 1 1 1 2 2 2 2 1 2 2 2 1 1 1 0 1 2 3 3 2 3 2 1 1 2 1 2 1 1 1 2 2 2 2 1 1 1 1 1 1 1
-2 -1 -0 0 1 1 1 1 1 1 1 1 1 1 1 0 0 1 2 3 3 3 2 2 2 0 1 1 1 1 1 1 2 1 1 1 1 1 1 1 2 1 0
-2 -2 -1 -1 -0 -0 0 -0 1 1 2 1 1 1 1 -0 0 1 1 2 2 2 2 0 1 1 0 2 2 1 1 1 2 1 1 1 1 1 1 1 2 1 1
-3 -3 -3 -3 -2 -1 -1 -0 -0 -0 -0 -1 -0 0 1 0 0 0 0 1 2 2 1 0 1 -0 -0 0 1 1 1 2 2 1 1 1 0 0 1 1 1 1 1
-4 -5 -4 -4 -3 -4 -4 -2 -1 -1 -2 -1 -1 -0 0 -0 -0 0 1 2 1 2 1 1 1 1 1 0 1 1 0 1 1 1 1 1 1 1 1 1 1 1 -0
-7 -6 -5 -5 -5 -4 -3 -3 -3 -2 -2 -2 -1 -1 0 -0 1 1 0 1 1 1 1 1 1 0 0 1 1 1 0 0 0 0 0 1 1 1 1 1 1 0 0
-6 -6 -6 -6 -5 -5 -5 -4 -4 -3 -3 -2 -2 -2 -1 -1 -1 -1 -0 1 1 1 1 1 0 0 0 1 1 1 0 0 0 0 0 -0 0 -0 -0 0 0 0 -0
-7 -7 -6 -6 -6 -6 -5 -5 -5 -5 -4 -3 -3 -2 -2 -1 -1 -1 -1 -0 1 0 1 0 0 0 0 0 0 -0 -1 -0 -0 0 -0 -0 0 0 0 -0 -0 -0 -0
-7 -7 -7 -7 -7 -6 -6 -6 -6 -5 -5 -4 -4 -4 -3 -3 -2 -2 -1 -1 0 0 -0 0 1 0 -0 -1 -1 -0 -0 -0 -1 -0 -0 0 0 -0 -0 -0 -0 -0 -0
-8 -8 -7 -7 -6 -6 -7 -7 -7 -6 -6 -5 -5 -4 -4 -4 -4 -4 -3 -2 -1 -1 -0 0 -0 0 -0 -1 -0 -0 -0 -1 -1 -1 -1 -1 -1 -1 -1 -1 -1 -1 -1
-8 -8 -7 -7 -7 -7 -7 -7 -7 -7 -6 -6 -5 -5 -5 -5 -4 -4 -4 -4 -4 -3 -3 -3 -1 -0 0 0 -0 -0 -1 -2 -1 -1 -1 -1 -0 -1 -1 -1 -1 -1 -1
-8 -8 -7 -7 -7 -7 -7 -7 -7 -7 -6 -6 -6 -6 -6 -5 -6 -6 -5 -4 -4 -4 -4 -4 -4 -4 -2 -1 -1 -1 -2 -2 -1 -0 -1 -0 -1 -1 -1 -1 -1 -1 -1
-8 -8 -7 -7 -7 -7 -7 -7 -7 -7 -6 -6 -6 -6 -6 -6 -7 -6 -6 -6 -6 -6 -5 -5 -5 -4 -4 -4 -3 -2 -2 -2 -1 -1 -1 -1 -1 -1 -1 -1 -1 -1 -1
-8 -8 -8 -7 -7 -7 -7 -7 -7 -7 -7 -7 -6 -6 -6 -6 -6 -6 -7 -7 -7 -7 -6 -6 -6 -6 -5 -5 -5 -5 -5 -5 -4 -3 -2 -2 -1 -2 -1 -1 -1 -2 -1
-8 -8 -8 -9 -9 -9 -8 -9 -9 -9 -8 -8 -8 -8 -8 -7 -7 -7 -7 -7 -7 -7 -8 -7 -7 -7 -7 -7 -6 -6 -6 -6 -6 -5 -5 -5 -5 -4 -4 -4 -3 -3 -3
-9 -9 -9 -9 -9 -9 -9 -9 -9 -9 -9 -9 -9 -9 -9 -9 -9 -9 -8 -8 -8 -8 -8 -8 -8 -8 -8 -8 -8 -8 -7 -7 -7 -7 -7 -6 -6 -6 -6 -6 -6 -6 -6
-9 -9 -9 -9 -9 -9 -10 -10 -10 -10 -10 -11 -10 -10 -10 -10 -11 -10 -10 -10 -9 -9 -9 -9 -10 -10 -10 -9 -9 -9 -9 -9 -9 -8 -8 -8 -8 -8 -8 -8 -8 -7 -8
-10 -10 -10 -10 -11 -11 -11 -11 -11 -11 -11 -12 -13 -13 -13 -13 -13 -13 -12 -12 -12 -11 -12 -12 -12 -12 -12 -11 -11 -11 -10 -10 -10 -10 -10 -10 -9 -9 -9 -9 -9 -9 -9
-11 -11 -11 -12 -12 -12 -13 -13 -13 -14 -14 -14 -14 -14 -15 -15 -15 -15 -15 -15 -14 -14 -14 -14 -14 -14 -14 -14 -13 -13 -13 -13 -13 -12 -12 -12 -11 -11 -11 -11 -11 -11 -11
-11 -12 -12 -12 -13 -14 -14 -15 -15 -16 -16 -16 -16 -16 -16 -16 -17 -16 -16 -17 -17 -16 -16 -16 -16 -16 -16 -15 -15 -15 -15 -15 -14 -14 -14 -14 -14 -13 -13 -13 -13 -13 -13
-12 -13 -13 -14 -15 -15 -16 -16 -17 -17 -17 -18 -18 -17 -17 -17 -17 -18 -18 -18 -18 -18 -18 -18 -18 -17 -17 -17 -17 -17 -16 -16 -16 -16 -15 -15 -15 -15 -15 -15 -15 -15 -16
-13 -14 -15 -15 -16 -16 -17 -17 -17 -18 -18 -18 -19 -19 -19 -19 -18 -18 -19 -20 -20 -19 -19 -19 -19 -19 -18 -18 -18 -18 -18 -18 -17 -17 -17 -17 -16 -16 -16 -16 -16 -16 -16
-15 -15 -16 -16 -17 -17 -17 -18 -18 -19 -19 -19 -20 -20 -20 -21 -21 -20 -20 -20 -21 -21 -21 -21 -21 -20 -20 -20 -20 -19 -19 -19 -19 -18 -18 -18 -18 -18 -18 -17 -17 -17 -17
-16 -16 -17 -17 -17 -18 -18 -19 -19 -19 -20 -21 -21 -21 -22 -22 -22 -22 -22 -22 -22 -22 -22 -22 -22 -22 -22 -21 -21 -21 -21 -20 -20 -20 -20 -20 -19 -19 -19 -19 -19 -18 -18
-17 -17 -17 -18 -19 -19 -19 -20 -20 -21 -21 -22 -22 -23 -23 -23 -24 -24 -24 -24 -24 -24 -24 -23 -23 -23 -23 -23 -22 -22 -22 -22 -22 -21 -21 -21 -21 -21 -21 -20 -20 -20 -20
Height
2994 2991 2989 2986 2982 2978 2975 2972 2970 2969 2968 2966 2967 2969 2968 2972 2972 2976 2983 2986 2988 2992 2994 2996 3005 3014 3017 3020 3024 3025 3027 3031 3032 3036 3040 3043 3046 3049 3051 3053 3056 3060 3063
2987 2984 2981 2979 2976 2971 2966 2964 2962 2961 2961 2960 2960 2962 2963 2964 2965 2970 2976 2978 2978 2981 2986 2991 2997 3001 2998 3010 3013 3017 3019 3023 3024 3026 3032 3036 3039 3042 3045 3048 3050 3052 3055
2981 2978 2975 2972 2968 2963 2958 2956 2953 2953 2953 2952 2951 2953 2954 2954 2954 2962 2966 2968 2970 2974 2979 2982 2990 2983 2993 2999 3002 3003 3010 3015 3017 3019 3024 3027 3031 3034 3036 3038 3040 3044 3048
2976 2972 2970 2966 2961 2955 2951 2948 2945 2943 2942 2942 2942 2944 2944 2944 2937 2946 2954 2959 2963 2968 2971 2974 2980 2983 2980 2984 2988 2991 2999 3005 3008 3012 3015 3019 3023 3026 3027 3029 3031 3034 3038
2972 2970 2966 2960 2954 2948 2944 2941 2938 2936 2934 2933 2933 2934 2934 2927 2932 2937 2945 2950 2955 2960 2963 2968 2971 2972 2974 2975 2979 2986 2991 2995 3000 3004 3007 3009 3012 3015 3017 3021 3023 3026 3028
2971 2968 2962 2956 2950 2945 2940 2937 2933 2929 2927 2926 2926 2927 2927 2928 2929 2931 2933 2940 2946 2952 2956 2959 2963 2967 2968 2970 2976 2980 2984 2988 2992 2997 2999 3001 3003 3005 3007 3011 3014 3013 3016
2970 2966 2961 2957 2949 2943 2937 2934 2930 2925 2923 2921 2920 2920 2921 2924 2925 2931 2932 2932 2939 2945 2949 2954 2954 2957 2960 2966 2970 2974 2978 2981 2985 2989 2990 2992 2994 2998 2999 3000 3002 3005 3005
2970 2966 2962 2956 2950 2944 2939 2934 2929 2925 2919 2916 2916 2915 2915 2917 2919 2920 2922 2928 2932 2937 2940 2945 2948 2951 2956 2960 2963 2967 2970 2974 2977 2979 2980 2983 2985 2987 2988 2989 2990 2992 2995
2969 2966 2962 2957 2953 2947 2941 2936 2932 2927 2922 2917 2914 2912 2912 2913 2914 2917 2919 2921 2913 2925 2933 2939 2943 2946 2950 2954 2956 2958 2961 2964 2968 2970 2972 2972 2974 2975 2974 2977 2978 2980 2983
2968 2965 2962 2959 2955 2951 2944 2939 2935 2931 2926 2922 2918 2914 2912 2913 2911 2911 2912 2913 2916 2922 2925 2930 2933 2937 2938 2945 2947 2949 2952 2955 2959 2962 2963 2964 2965 2964 2964 2966 2969 2970 2973
2970 2967 2965 2961 2956 2953 2948 2944 2941 2936 2933 2929 2924 2921 2917 2914 2912 2911 2911 2910 2911 2916 2916 2921 2924 2929 2933 2936 2939 2941 2944 2947 2950 2952 2954 2955 2956 2955 2955 2956 2959 2961 2963
2972 2968 2965 2962 2959 2956 2952 2948 2944 2941 2938 2933 2929 2926 2923 2919 2917 2916 2914 2913 2913 2914 2915 2915 2915 2919 2921 2925 2929 2932 2935 2937 2940 2942 2945 2946 2947 2948 2949 2950 2952 2954 2957
2974 2971 2968 2965 2961 2958 2954 2951 2947 2944 2940 2936 2933 2930 2926 2924 2921 2919 2917 2917 2916 2916 2915 2912 2910 2909 2910 2913 2917 2921 2925 2929 2931 2934 2935 2936 2938 2940 2943 2944 2946 2948 2951
2975 2972 2970 2966 2963 2960 2956 2953 2949 2946 2942 2938 2935 2932 2930 2927 2925 2922 2920 2918 2916 2917 2915 2912 2911 2910 2910 2906 2910 2911 2914 2918 2921 2922 2924 2926 2928 2930 2934 2935 2939 2941 2943
2976 2973 2970 2967 2964 2961 2957 2954 2950 2946 2942 2939 2937 2934 2931 2929 2927 2924 2922 2919 2918 2916 2914 2912 2912 2911 2909 2908 2909 2909 2908 2909 2910 2911 2913 2916 2918 2920 2922 2925 2928 2930 2933
2977 2974 2970 2966 2962 2959 2956 2953 2949 2945 2941 2939 2936 2933 2930 2928 2925 2923 2921 2919 2917 2914 2912 2911 2910 2908 2908 2907 2906 2906 2906 2905 2906 2905 2906 2907 2909 2911 2913 2915 2918 2920 2921
2977 2972 2969 2965 2961 2957 2954 2950 2946 2943 2939 2937 2934 2930 2927 2925 2922 2920 2917 2915 2914 2912 2910 2908 2906 2905 2905 2904 2904 2903 2903 2903 2902 2902 2902 2903 2904 2905 2906 2908 2910 2911 2912
2974 2971 2967 2963 2958 2955 2951 2946 2941 2939 2935 2932 2928 2925 2922 2920 2916 2914 2912 2910 2908 2905 2904 2903 2902 2901 2900 2899 2899 2898 2899 2898 2898 2897 2898 2899 2899 2900 2902 2902 2903 2905 2907
2970 2966 2963 2960 2955 2950 2946 2941 2937 2933 2930 2926 2922 2918 2914 2912 2910 2906 2904 2902 2900 2899 2898 2897 2896 2895 2894 2893 2893 2893 2893 2892 2892 2892 2892 2892 2893 2895 2896 2897 2898 2899 2902
2964 2960 2955 2950 2946 2941 2937 2933 2929 2925 2922 2919 2916 2912 2908 2905 2903 2900 2897 2895 2892 2890 2889 2889 2888 2887 2887 2887 2886 2886 2886 2885 2885 2885 2885 2886 2886 2888 2890 2891 2892 2893 2896
2960 2956 2952 2947 2942 2937 2931 2927 2923 2918 2914 2910 2908 2905 2902 2898 2895 2893 2890 2887 2886 2884 2882 2882 2881 2879 2878 2878 2878 2878 2878 2878 2878 2877 2878 2878 2879 2880 2881 2883 2884 2886 2887
2957 2952 2947 2942 2936 2932 2927 2922 2917 2913 2908 2904 2900 2898 2896 2893 2890 2886 2884 2881 2879 2877 2875 2874 2873 2871 2871 2870 2869 2869 2868 2869 2869 2870 2871 2872 2873 2874 2875 2876 2878 2880 2881
2952 2947 2942 2937 2932 2927 2922 2917 2912 2908 2904 2899 2895 2890 2887 2884 2882 2880 2877 2874 2873 2870 2868 2866 2865 2863 2862 2861 2860 2861 2860 2861 2861 2862 2863 2864 2866 2868 2869 2871 2872 2873 2875
2946 2941 2936 2931 2926 2921 2917 2912 2907 2903 2898 2893 2889 2884 2880 2877 2874 2871 2869 2866 2865 2863 2861 2859 2857 2856 2854 2854 2852 2852 2852 2852 2853 2855 2856 2857 2858 2860 2861 2863 2864 2865 2866
2938 2933 2929 2924 2920 2915 2910 2906 2901 2897 2892 2887 2882 2878 2874 2870 2866 2863 2859 2857 2855 2854 2852 2851 2849 2848 2846 2845 2844 2844 2844 2844 2845 2846 2847 2849 2850 2853 2854 2855 2857 2858 2860
2933 2928 2923 2917 2912 2907 2902 2897 2892 2887 2883 2879 2874 2870 2866 2862 2858 2855 2852 2850 2847 2845 2843 2842 2841 2839 2839 2837 2836 2836 2836 2836 2837 2837 2839 2840 2841 2843 2844 2847 2848 2851 2852
Wind_Speed
28 26 27 27 29 29 29 30 28 26 24 23 25 28 30 33 37 30 31 34 35 39 38 39 37 33 36 35 34 31 27 29 26 24 21 28 29 27 30 31 31 28 29
28 25 26 27 27 31 29 30 30 27 27 26 28 27 31 34 38 33 33 31 33 36 39 40 41 35 39 33 36 39 27 30 28 27 26 26 29 27 26 29 32 35 34
26 25 26 26 26 28 28 29 31 29 29 30 32 28 34 41 37 34 30 25 28 30 31 37 40 39 31 35 36 37 42 33 27 27 26 27 26 27 28 29 33 31 34
25 24 25 25 25 23 25 25 27 31 31 32 32 34 25 45 32 38 31 29 28 28 29 29 29 29 38 43 48 46 32 32 27 29 29 30 32 29 30 31 35 37 34
21 20 21 22 23 23 24 23 24 29 32 27 32 29 31 37 26 21 31 33 36 33 34 33 33 30 20 19 18 24 29 32 31 30 32 32 29 31 32 32 34 36 37
17 18 19 20 20 21 23 22 22 23 20 24 29 28 22 34 23 19 26 25 26 32 37 35 30 34 30 26 25 27 23 28 28 31 32 34 29 32 35 34 31 37 40
14 16 16 17 18 17 16 16 16 18 18 20 22 24 25 31 33 33 32 28 27 28 31 34 31 24 25 32 30 29 31 28 30 34 33 32 32 33 36 35 38 40 46
11 14 17 18 19 21 20 18 14 15 14 14 17 22 20 26 35 43 29 31 33 28 25 26 22 22 27 28 28 28 33 30 33 31 29 31 33 37 43 35 35 34 37
11 15 18 19 20 22 24 27 28 27 24 20 10 7 11 18 15 26 29 31 33 26 28 32 31 40 31 28 33 35 35 33 31 28 28 29 30 32 31 33 33 28 32
14 17 20 20 21 22 25 26 28 28 29 29 29 24 16 12 11 17 21 27 30 28 35 35 39 36 32 32 30 32 32 33 28 28 27 27 28 27 33 32 32 30 34
15 17 16 19 21 22 24 24 26 26 25 24 25 25 26 25 20 12 9 18 24 32 29 34 30 36 31 33 32 33 34 31 30 30 29 25 21 19 24 31 27 30 35
16 18 19 20 20 22 23 23 24 24 24 24 25 24 22 21 22 22 18 11 7 10 13 19 33 41 37 38 36 39 36 34 35 31 32 27 25 21 18 24 27 23 21
17 17 18 19 20 21 22 22 22 23 23 24 24 23 23 23 21 18 16 17 15 13 10 10 8 9 22 37 35 39 34 31 33 37 34 31 27 27 23 19 23 24 25
16 17 18 19 20 20 21 21 22 22 23 23 24 23 23 22 21 19 17 16 13 12 13 14 13 12 11 9 17 28 33 36 34 35 32 33 33 31 31 30 27 28 35
17 17 17 18 18 18 20 20 21 22 22 23 22 22 22 20 19 19 18 16 15 14 13 12 12 12 12 11 10 10 9 12 18 26 32 37 34 37 35 34 35 37 39
16 16 18 19 21 22 23 23 23 23 24 24 24 23 22 22 22 21 20 19 18 17 16 14 13 12 12 11 12 12 11 10 11 12 15 18 20 25 26 30 34 35 35
17 19 21 22 23 24 24 25 26 25 26 25 24 25 24 24 22 21 21 21 21 20 18 17 16 15 15 15 14 13 13 13 13 12 12 13 14 15 17 19 20 20 21
20 21 22 24 25 25 26 27 28 27 26 27 28 27 26 25 25 25 24 24 23 22 22 21 19 18 17 17 17 17 17 16 16 16 15 15 15 15 16 16 17 18 19
24 25 26 26 27 29 30 31 32 32 30 29 28 30 30 28 26 27 27 26 26 25 24 22 22 21 20 19 18 18 19 19 19 18 18 17 17 18 18 18 19 20 21
29 30 31 33 34 34 33 33 32 32 31 28 28 27 26 27 26 26 26 26 26 26 26 25 24 23 22 21 20 19 19 19 19 19 19 19 20 19 19 19 19 19 20
30 31 31 32 32 32 32 32 31 30 30 30 28 26 25 25 25 24 25 25 24 25 26 25 25 25 25 24 22 21 20 20 20 20 20 19 19 20 20 19 19 18 18
30 31 31 31 31 31 30 31 31 31 31 31 31 29 26 26 25 24 23 24 24 23 23 24 23 24 25 24 25 24 23 22 22 22 23 22 20 20 19 19 18 17 17
30 30 30 30 29 29 29 30 31 31 31 31 31 32 31 30 28 27 25 23 23 24 23 22 23 23 23 23 25 25 25 24 24 24 23 22 22 22 21 21 20 21 20
29 29 29 29 29 30 30 31 31 31 32 32 32 32 32 32 31 30 29 29 25 22 23 23 22 23 23 22 22 23 24 25 25 25 24 24 23 22 21 22 21 22 22
31 31 31 31 31 31 32 31 31 32 32 32 32 31 31 31 30 30 30 30 29 26 24 22 22 22 22 22 21 22 22 23 24 24 24 24 25 24 23 23 22 22 23
31 31 32 33 33 33 34 35 35 35 35 33 32 30 29 29 29 29 29 28 29 28 27 25 22 22 21 21 22 21 21 21 22 23 22 22 23 23 23 23 23 23 23
Wind_Direction
303 298 297 295 296 296 290 282 278 279 277 271 266 265 252 241 249 232 246 253 245 241 237 242 240 242 244 244 259 238 241 255 265 269 255 248 240 241 246 243 244 240 236
304 302 296 293 294 295 295 279 271 271 272 264 263 271 248 244 242 242 249 246 245 237 237 234 238 245 228 248 246 252 244 259 263 266 255 247 237 245 237 237 242 250 238
309 305 301 298 292 294 297 287 268 264 269 267 262 273 245 243 246 245 243 247 242 231 232 230 251 236 242 245 245 246 257 252 256 259 250 243 233 240 244 244 247 247 245
311 311 307 303 299 296 297 296 287 279 285 260 260 259 257 242 252 240 232 240 230 221 229 232 237 257 276 258 256 246 232 244 248 248 249 245 245 237 243 244 246 246 247
316 318 320 320 316 310 305 303 294 273 277 274 264 259 253 271 256 264 220 239 234 230 229 224 241 272 264 223 223 227 238 245 241 243 249 252 253 243 242 244 253 250 252
330 340 339 342 336 323 311 309 309 312 287 273 262 263 260 253 265 269 207 223 230 225 228 236 243 246 250 248 242 244 243 241 243 242 245 251 255 252 247 253 243 235 260
355 358 4 5 1 352 342 321 318 313 290 272 278 261 270 242 230 253 252 216 220 218 226 242 247 242 238 244 242 243 239 242 243 242 249 253 255 247 253 250 257 258 257
15 24 28 25 26 29 26 19 10 1 345 290 269 275 277 244 253 253 242 227 220 224 235 240 249 236 228 239 246 235 244 249 247 255 249 253 259 257 250 254 250 250 251
40 38 36 33 33 38 41 39 37 32 26 21 8 327 279 265 255 243 247 229 197 221 226 234 239 236 246 241 246 250 245 246 250 251 260 259 256 255 250 249 248 247 246
45 43 39 36 35 34 39 39 36 33 35 34 29 25 12 1 283 259 241 220 219 238 236 242 232 239 243 256 254 249 249 245 242 247 255 253 245 259 263 248 238 228 234
46 44 40 38 36 35 36 37 36 34 30 33 36 36 33 29 22 3 313 258 230 219 218 232 231 241 241 253 251 248 250 246 243 246 252 265 246 265 263 235 231 236 232
37 36 32 32 31 28 29 28 29 28 27 28 31 30 33 41 34 28 21 360 302 273 275 222 229 224 224 239 239 254 250 244 242 246 247 256 252 256 254 245 233 232 224
36 34 32 31 28 26 24 23 23 22 19 20 22 22 23 26 28 27 27 19 14 3 342 318 311 266 224 232 241 251 246 240 241 244 242 249 243 247 248 245 242 240 242
31 26 23 19 16 17 15 13 13 12 12 13 12 11 14 13 10 8 10 11 9 1 354 349 339 330 319 263 253 233 232 228 238 232 238 244 238 233 243 244 248 248 248
20 15 11 9 8 6 3 3 2 0 359 358 357 357 355 354 354 356 356 351 346 347 348 342 332 328 326 317 306 291 267 254 235 232 235 240 240 234 238 245 240 236 241
8 4 3 1 359 357 355 355 356 354 348 347 346 344 342 340 338 336 335 335 332 329 326 323 319 315 309 304 300 300 297 283 274 265 253 247 242 241 240 238 239 240 240
1 360 358 355 351 347 346 345 343 342 338 335 332 328 326 324 321 318 315 314 314 313 312 309 307 301 297 294 291 283 279 278 277 272 266 262 258 259 256 256 255 252 249
356 355 353 349 344 340 339 337 334 333 329 326 321 317 313 311 309 305 302 300 298 298 298 297 296 293 290 285 283 283 281 277 273 269 265 259 256 251 250 251 254 260 259
355 351 348 344 339 337 337 334 331 328 326 324 321 316 313 309 305 302 297 293 289 285 284 285 285 284 283 280 277 274 271 272 271 267 264 261 258 255 251 248 246 244 243
346 344 344 341 339 337 334 331 330 329 326 326 323 320 315 310 305 300 298 294 291 288 283 281 279 277 274 272 269 266 266 269 269 267 263 258 255 252 249 247 243 237 233
341 339 337 334 333 333 333 333 332 331 330 329 328 325 321 317 315 309 303 301 299 293 289 284 280 276 272 270 269 267 262 260 260 262 264 264 263 261 257 254 251 247 247
335 334 334 334 335 334 332 331 330 329 328 326 324 322 320 315 312 311 307 301 299 298 294 290 286 280 276 274 272 268 263 259 256 254 255 255 256 257 259 259 257 251 248
333 332 333 333 332 331 330 327 326 324 323 321 319 317 316 315 312 307 306 303 299 295 294 292 288 284 280 275 270 268 268 264 261 260 257 255 254 252 251 251 250 249 250
333 333 333 333 332 330 327 325 323 322 320 318 316 314 314 312 309 306 303 300 300 297 293 290 288 285 281 278 274 270 266 264 261 259 258 257 256 254 252 250 250 249 248
336 336 334 332 330 328 325 323 321 318 317 316 314 313 311 308 307 305 302 300 298 299 296 293 288 282 281 278 274 272 268 264 262 260 257 256 256 255 253 253 251 250 249
334 333 333 332 330 327 324 323 323 322 321 318 315 313 309 307 305 303 302 301 300 299 296 293 290 285 281 277 274 270 267 264 261 260 258 257 256 253 251 248 248 248 250